Temperature
13 13 13 13 13 13 13 13 13 13 13 13 13 13 13 13 13 13 13 13 13 13 14 13 13 13 13 13 13 13 13 13 13 13 13 13 13 13 12 12 12 12 12
13 13 13 13 13 13 13 13 13 13 13 13 13 13 13 13 13 13 13 13 13 13 13 13 13 13 13 13 13 13 13 13 13 13 13 13 12 12 12 12 12 12 11
13 13 13 13 13 13 13 13 13 13 13 13 13 13 13 13 13 13 12 13 13 13 13 13 13 13 13 13 13 13 13 12 12 12 12 12 12 12 12 11 11 11 11
13 13 13 13 13 13 13 13 13 13 13 13 13 12 12 12 12 12 12 12 12 12 13 13 13 13 13 13 12 12 12 12 12 12 12 12 12 12 11 11 11 11 11
12 12 12 12 12 12 12 12 12 12 12 12 12 12 12 12 12 12 12 12 12 12 12 12 12 12 12 12 12 12 12 12 12 12 12 12 11 11 11 11 11 11 11
12 12 12 12 12 12 12 12 12 12 12 12 12 12 12 12 12 12 12 12 12 12 12 12 12 12 11 12 12 12 12 11 11 11 11 11 11 11 11 10 10 10 10
12 12 12 12 12 12 12 12 12 12 11 11 11 11 11 11 11 11 11 11 11 11 11 11 11 11 11 11 11 11 11 11 11 11 11 11 10 10 10 10 10 10 10
11 11 12 11 11 11 11 11 11 11 11 11 10 10 10 11 11 11 11 11 11 11 11 11 11 11 10 11 11 11 11 10 10 10 10 10 10 10 10 9 9 9 9
11 11 11 11 11 11 11 11 11 11 11 10 10 10 10 10 10 10 11 11 10 10 10 10 10 10 10 10 10 10 10 10 10 10 10 10 10 9 9 9 9 9 9
11 11 11 11 11 11 11 10 10 10 10 10 10 10 10 9 9 9 10 10 10 10 10 10 10 10 9 9 9 9 10 10 10 10 9 9 9 9 9 9 9 9 9
10 10 11 10 11 10 10 10 10 10 10 10 10 9 9 9 9 8 8 9 9 9 9 9 9 9 9 9 9 9 9 9 9 9 9 9 9 9 9 9 9 9 9
10 10 10 10 10 10 10 10 10 10 10 9 9 9 9 9 9 8 8 8 8 9 9 9 9 9 9 9 9 9 9 9 9 9 9 9 9 9 9 9 8 8 8
10 10 10 10 10 10 10 10 9 9 9 9 9 9 9 8 8 8 8 8 8 8 8 8 8 8 8 8 8 8 8 8 9 9 8 8 8 8 8 8 8 8 8
9 9 9 9 9 9 9 9 9 9 9 9 8 8 8 8 8 8 7 7 7 7 8 8 8 8 8 8 8 8 8 8 8 8 8 8 8 8 8 8 8 8 8
9 9 9 9 9 9 9 9 9 8 8 8 8 8 8 8 7 7 7 7 6 6 6 7 7 8 8 8 8 8 8 8 8 8 8 8 8 7 7 8 8 8 7
8 8 8 8 8 8 8 8 8 8 8 8 8 7 7 7 7 7 7 6 6 6 6 6 7 7 7 7 7 7 7 7 7 7 7 7 7 7 7 7 7 7 7
8 8 8 8 8 8 8 8 8 8 7 7 7 7 7 7 7 7 6 6 6 6 6 6 6 6 6 6 6 6 7 7 7 7 6 7 7 7 7 7 7 7 7
8 8 8 7 7 7 7 7 7 7 7 7 7 7 7 6 6 6 6 6 6 5 5 5 6 6 6 6 6 6 6 6 6 6 6 6 6 6 6 6 6 6 6
7 7 7 7 7 7 7 7 7 7 7 7 7 6 6 6 6 6 6 6 5 5 5 5 5 5 5 5 5 5 5 5 5 5 5 5 5 6 6 6 6 6 6
7 7 7 6 6 6 6 6 6 6 6 6 6 6 6 6 6 5 5 5 5 5 4 4 4 5 5 5 5 5 5 5 5 5 5 5 5 5 5 5 5 5 5
6 6 6 6 6 6 6 6 6 6 6 6 6 6 5 5 5 5 5 4 4 4 4 4 4 4 4 4 4 4 4 4 4 4 4 4 4 5 5 5 4 5 5
6 6 6 5 5 5 5 5 5 5 5 5 5 5 5 5 4 4 4 4 4 4 4 3 3 3 4 4 3 3 3 3 3 4 4 4 4 4 4 4 4 4 4
5 5 5 5 5 5 5 5 5 5 4 4 4 4 4 4 4 4 4 4 3 3 3 3 3 3 3 3 3 3 3 3 3 3 3 3 4 4 4 3 3 3 3
4 4 4 4 4 4 4 4 4 4 4 4 4 4 4 4 4 3 3 3 3 3 3 2 3 3 3 3 2 2 2 2 2 2 2 2 3 3 3 3 3 3 2
4 4 4 4 4 4 4 4 3 3 4 4 3 3 3 3 3 2 2 2 2 2 2 2 2 2 2 2 2 2 2 2 2 2 2 2 2 2 3 3 3 2 2
3 3 3 3 3 3 3 3 3 3 3 3 3 3 2 2 2 2 2 2 2 2 2 2 2 2 2 2 2 2 1 1 1 1 1 1 1 1 1 2 2 1 1
Wind_Speed
2 2 1 2 2 2 2 2 3 3 3 3 4 4 3 4 3 3 6 8 7 7 7 7 7 6 7 7 7 7 6 6 6 5 4 3 3 4 5 5 5 5 5
2 2 2 1 1 1 1 1 2 2 2 2 2 3 3 3 3 3 5 7 7 7 7 7 7 6 7 7 7 7 6 5 5 5 5 5 5 5 5 5 6 6 7
3 2 2 1 0 1 1 1 2 1 1 1 2 3 2 2 1 1 3 5 6 7 7 8 7 6 7 7 6 6 6 6 6 5 5 5 5 5 5 6 6 7 7
3 2 2 1 0 0 0 1 1 0 1 1 2 2 2 1 1 1 1 2 4 5 6 7 7 7 7 7 6 6 6 7 6 6 6 6 6 6 6 6 6 6 7
3 2 1 1 1 1 0 1 0 0 0 1 1 2 2 1 1 1 1 1 2 3 4 6 7 8 7 7 7 6 7 7 7 7 7 7 6 6 7 7 7 7 8
3 2 1 1 1 1 1 1 0 0 0 1 2 2 2 2 1 1 1 1 1 2 3 4 5 6 7 7 6 6 7 7 7 8 8 8 8 7 8 8 8 8 9
3 2 1 1 1 1 1 1 1 1 0 0 1 2 2 2 1 1 1 0 1 1 2 2 2 3 4 5 6 6 7 8 8 8 9 9 9 9 9 9 9 9 9
2 2 2 1 1 1 1 1 1 1 0 1 1 0 1 2 2 2 0 0 1 1 1 1 2 2 3 3 4 5 7 8 9 9 9 10 10 9 10 10 10 10 10
2 1 1 1 1 2 2 1 1 1 1 1 0 1 0 1 2 2 1 1 1 2 2 1 1 2 2 2 2 3 5 7 9 10 10 10 10 9 9 10 10 10 10
2 2 1 1 2 1 1 2 1 1 2 2 1 0 1 0 0 2 3 2 2 2 2 2 1 2 2 2 2 2 4 6 8 10 10 10 9 9 9 10 10 10 10
2 2 2 2 2 2 2 2 1 1 1 2 1 1 1 1 1 1 3 3 3 2 2 2 1 1 1 1 1 2 4 6 8 10 10 10 9 10 10 11 11 11 10
1 2 2 2 1 2 2 2 2 2 1 1 1 1 1 1 1 1 2 3 3 3 3 2 2 1 1 2 2 3 4 6 8 10 10 10 10 10 10 10 11 11 10
1 1 1 2 2 2 2 2 2 2 2 2 1 1 1 2 1 1 2 3 3 3 2 2 2 1 2 2 2 3 4 6 7 9 10 10 10 9 9 10 10 10 10
1 1 1 1 1 1 1 2 2 2 2 2 2 2 2 2 2 2 2 2 3 3 2 3 1 1 1 2 3 4 4 6 7 8 9 9 8 7 7 8 9 10 10
1 2 1 1 1 1 2 2 2 2 2 3 3 3 2 2 2 2 1 2 2 3 4 3 2 1 1 2 4 4 4 6 7 8 8 8 6 6 6 7 8 8 8
2 2 2 2 2 2 2 2 2 2 3 3 2 3 2 2 2 2 2 2 2 3 4 3 2 2 2 3 5 5 5 7 8 8 8 7 5 6 6 7 7 7 7
2 2 2 2 2 2 2 3 3 3 3 3 3 3 3 3 2 2 2 2 2 3 6 5 3 2 2 3 3 5 6 6 6 7 7 7 6 6 7 7 7 7 7
2 2 2 2 2 2 3 3 4 4 4 4 3 3 4 3 3 3 3 3 3 3 4 7 4 3 3 3 3 3 4 5 5 7 6 6 7 7 7 8 7 7 7
2 2 2 3 3 3 3 3 4 4 4 4 4 4 4 3 4 3 3 3 3 3 3 5 6 3 3 2 3 4 3 3 5 6 6 6 7 7 8 7 7 7 6
2 2 2 2 2 2 2 2 3 3 3 3 3 4 4 4 4 4 4 4 4 4 4 4 5 4 3 3 2 3 4 3 4 4 5 6 6 7 7 7 7 6 6
2 2 2 2 2 2 2 2 2 3 3 3 3 3 4 4 5 5 4 4 4 4 4 4 5 4 4 3 3 3 4 4 4 2 3 3 3 3 5 7 7 7 6
2 2 2 3 2 2 4 5 4 3 3 4 4 4 4 4 5 7 7 7 6 5 5 5 5 6 6 5 3 3 3 3 3 2 2 4 2 3 4 5 7 7 7
2 3 3 3 3 4 5 6 6 4 4 4 4 4 4 4 5 4 6 7 7 10 10 7 7 8 6 5 4 4 4 4 5 3 2 4 3 4 4 6 7 7 7
3 3 3 3 4 4 6 6 7 5 4 5 4 4 4 5 5 4 4 4 5 6 7 7 7 7 6 4 4 5 5 4 4 3 2 3 3 3 4 4 7 7 7
3 4 4 4 4 5 6 7 7 3 4 5 5 5 5 5 8 7 5 5 6 6 7 9 9 9 9 8 5 3 3 2 4 3 2 2 2 2 3 3 5 6 7
4 4 5 5 5 5 7 8 7 3 4 5 4 5 8 8 8 8 6 6 7 6 5 5 6 7 6 6 6 5 5 4 3 3 2 2 1 1 3 2 2 3 4
Wind_Direction
140 135 140 149 164 181 182 213 242 249 249 234 229 230 237 235 230 199 171 185 197 209 225 234 239 243 240 241 244 240 239 242 241 241 246 251 256 263 266 274 281 289 296
133 144 142 132 158 160 179 228 252 252 259 262 254 254 244 242 232 187 173 188 200 211 222 231 238 242 249 250 247 240 233 232 232 234 239 248 256 263 269 272 279 279 282
129 132 137 136 148 159 176 254 277 304 280 281 270 270 259 249 257 226 176 178 189 206 220 230 238 244 249 252 251 244 237 235 237 240 242 250 253 259 269 276 280 278 278
134 130 137 150 30 76 90 182 218 287 301 298 294 298 300 290 287 270 215 184 184 198 212 226 232 241 247 251 255 250 246 245 242 242 243 248 255 259 266 274 279 286 288
145 131 148 138 56 57 126 190 107 81 323 318 298 293 295 293 264 254 230 198 189 194 200 220 230 232 236 246 252 254 257 252 249 247 247 249 253 257 264 269 274 282 287
134 122 142 114 76 121 149 168 168 6 253 267 307 308 297 279 278 260 252 240 215 213 216 222 225 228 229 233 241 255 264 263 260 256 254 254 256 258 264 267 273 278 283
133 136 142 126 121 148 182 164 92 54 350 9 24 336 310 282 279 274 259 284 304 247 247 241 218 231 231 225 229 250 265 267 266 264 261 260 261 259 263 266 272 277 281
130 147 144 155 150 140 133 106 93 90 357 37 96 88 330 329 331 294 272 250 315 348 314 276 235 239 239 219 222 242 260 269 272 269 268 266 263 261 263 267 271 274 278
125 126 136 149 151 153 173 173 142 118 166 302 37 129 157 252 324 322 335 355 354 350 333 325 293 266 247 221 213 242 262 272 275 275 274 272 265 263 266 270 272 274 277
134 134 152 160 159 160 172 190 158 163 170 202 253 231 209 168 187 313 319 334 346 327 314 317 323 299 270 234 220 253 271 275 278 278 277 277 270 266 268 272 276 279 280
152 146 140 164 167 174 186 189 170 193 197 201 206 249 278 292 219 219 275 304 318 306 307 308 313 292 293 276 237 279 281 278 284 283 279 276 273 271 271 273 277 282 282
160 161 151 162 174 184 190 186 184 200 223 226 228 237 235 225 230 228 258 287 294 293 305 302 303 292 284 302 290 300 298 290 291 292 285 280 277 276 276 277 280 283 282
158 172 127 155 173 195 196 182 186 202 207 206 221 242 254 257 255 257 264 278 290 293 288 280 262 242 274 290 301 301 295 294 294 295 294 291 290 285 280 278 281 284 283
150 134 121 158 170 199 199 179 189 208 212 206 223 236 249 262 259 248 236 261 294 291 278 268 281 226 279 300 305 299 297 298 301 297 296 300 302 303 294 286 286 286 287
155 158 161 168 170 194 204 194 201 217 219 214 219 227 235 249 247 246 234 216 233 277 280 269 276 269 278 291 299 295 295 299 296 294 296 299 302 306 303 299 295 291 289
181 179 185 192 190 198 205 204 217 223 224 229 221 220 233 237 237 234 232 238 229 243 269 274 273 287 288 286 289 293 290 295 289 286 290 286 285 295 301 301 300 297 294
191 192 201 210 211 219 216 210 217 222 227 236 234 224 232 230 230 233 234 238 249 247 264 280 279 290 290 290 298 291 289 287 286 284 287 284 282 286 290 292 294 294 294
202 196 204 219 229 231 228 221 224 227 228 230 230 228 237 235 231 232 231 235 243 245 255 276 286 284 277 276 285 291 290 284 282 281 283 284 285 285 282 283 284 286 288
209 204 205 218 223 229 237 236 229 230 231 231 228 228 235 230 238 237 237 241 246 254 252 266 279 275 272 273 289 291 284 284 287 281 275 275 282 282 281 280 277 282 288
217 214 212 220 222 222 232 241 238 239 243 245 238 233 233 230 236 239 243 243 245 254 258 263 272 274 269 266 261 278 288 282 282 282 274 274 279 282 284 282 282 284 288
229 222 216 223 223 220 222 228 244 245 243 251 254 247 240 237 237 242 245 241 241 250 257 262 267 273 269 268 259 256 275 285 277 264 275 281 281 278 279 277 276 278 282
239 228 222 224 230 236 245 249 249 244 243 242 250 254 250 246 249 254 254 252 245 245 251 255 260 262 265 258 249 249 260 277 281 277 269 277 261 263 268 261 271 277 280
253 243 232 228 230 236 250 256 259 251 245 244 244 248 262 255 252 247 256 260 263 259 251 247 254 260 263 256 252 254 247 247 255 256 265 274 265 263 268 270 272 273 278
252 252 248 239 238 241 249 257 264 253 245 244 242 242 248 253 250 249 249 254 254 258 256 251 248 255 258 256 242 244 244 250 260 253 213 259 270 266 282 281 274 272 281
254 251 248 242 240 246 249 254 260 245 245 249 246 242 242 246 253 256 250 251 259 262 262 256 255 257 257 257 246 243 240 250 267 260 217 230 263 289 284 274 273 272 278
249 249 249 242 236 240 249 253 253 236 245 253 252 244 245 252 259 258 248 245 255 260 260 270 266 267 263 259 247 224 221 228 246 255 223 209 248 306 299 283 284 291 288
Height
1515 1517 1518 1520 1522 1523 1524 1526 1527 1528 1529 1530 1531 1532 1533 1533 1534 1534 1535 1535 1535 1535 1536 1536 1536 1536 1536 1537 1537 1537 1537 1537 1537 1537 1537 1537 1537 1536 1536 1536 1535 1535 1534
1513 1515 1517 1518 1520 1521 1523 1524 1525 1526 1527 1528 1529 1530 1530 1531 1532 1532 1532 1532 1532 1533 1533 1533 1533 1533 1534 1534 1534 1534 1534 1534 1534 1534 1534 1534 1534 1533 1533 1533 1532 1532 1531
1511 1513 1515 1516 1518 1519 1520 1522 1523 1524 1525 1525 1526 1527 1528 1529 1529 1529 1530 1530 1530 1530 1530 1530 1530 1531 1531 1531 1531 1531 1531 1531 1531 1531 1531 1531 1530 1530 1530 1530 1529 1529 1529
1509 1511 1513 1514 1516 1517 1518 1519 1520 1521 1522 1523 1523 1524 1525 1525 1526 1526 1527 1527 1527 1527 1527 1527 1527 1527 1528 1528 1528 1528 1528 1528 1528 1528 1528 1527 1527 1527 1527 1527 1526 1526 1525
1507 1508 1510 1512 1513 1514 1516 1517 1518 1519 1519 1520 1521 1521 1522 1522 1523 1523 1524 1524 1524 1524 1524 1524 1524 1524 1524 1524 1524 1525 1525 1525 1525 1525 1524 1524 1524 1523 1523 1523 1523 1522 1522
1504 1506 1508 1509 1511 1512 1513 1514 1516 1516 1517 1518 1518 1518 1519 1519 1520 1520 1521 1521 1521 1521 1521 1521 1521 1521 1521 1521 1521 1521 1521 1521 1521 1521 1521 1521 1520 1520 1520 1519 1519 1519 1518
1502 1503 1505 1507 1508 1509 1510 1512 1513 1514 1514 1515 1516 1516 1516 1517 1517 1518 1518 1518 1518 1518 1518 1518 1518 1518 1517 1517 1517 1517 1517 1517 1517 1517 1517 1517 1516 1516 1516 1516 1515 1515 1514
1499 1501 1503 1504 1505 1507 1508 1509 1510 1511 1512 1513 1513 1513 1513 1515 1515 1515 1515 1515 1515 1515 1515 1515 1515 1515 1514 1514 1513 1513 1513 1513 1513 1513 1513 1512 1512 1512 1512 1512 1511 1511 1511
1496 1498 1500 1501 1502 1504 1505 1507 1508 1509 1510 1511 1512 1513 1512 1512 1512 1512 1512 1513 1513 1512 1512 1512 1511 1511 1511 1510 1510 1510 1510 1509 1509 1509 1508 1508 1508 1507 1507 1508 1508 1507 1507
1494 1496 1497 1499 1500 1502 1503 1504 1505 1506 1507 1508 1509 1510 1511 1511 1511 1509 1510 1510 1510 1510 1509 1509 1508 1508 1508 1507 1507 1506 1506 1506 1505 1504 1504 1503 1503 1503 1503 1503 1503 1503 1502
1492 1494 1495 1496 1498 1499 1500 1501 1503 1504 1505 1505 1506 1507 1507 1508 1508 1508 1506 1506 1506 1506 1506 1505 1505 1505 1504 1504 1503 1503 1502 1501 1501 1500 1500 1499 1498 1499 1498 1499 1499 1498 1498
1490 1491 1492 1493 1495 1496 1497 1498 1500 1501 1502 1503 1503 1504 1504 1505 1505 1505 1504 1503 1502 1502 1502 1502 1502 1502 1501 1501 1500 1499 1498 1497 1497 1496 1495 1495 1494 1494 1494 1494 1494 1493 1493
1487 1488 1489 1491 1492 1493 1494 1495 1497 1498 1499 1499 1500 1501 1501 1502 1502 1502 1502 1500 1499 1499 1498 1499 1499 1498 1498 1497 1496 1495 1494 1493 1492 1492 1491 1490 1490 1489 1489 1489 1489 1488 1487
1484 1486 1487 1488 1489 1490 1491 1492 1493 1494 1495 1496 1497 1498 1498 1498 1498 1499 1499 1498 1496 1495 1495 1495 1495 1495 1495 1494 1493 1491 1490 1489 1489 1488 1487 1486 1485 1485 1484 1484 1484 1483 1482
1482 1484 1485 1485 1486 1487 1488 1489 1490 1491 1492 1493 1494 1494 1494 1494 1495 1495 1495 1495 1495 1493 1491 1491 1492 1491 1491 1490 1489 1488 1486 1486 1485 1484 1483 1482 1481 1480 1480 1480 1479 1478 1478
1480 1481 1482 1482 1483 1484 1485 1486 1487 1488 1489 1490 1490 1491 1490 1491 1491 1491 1491 1491 1491 1491 1488 1487 1487 1487 1486 1486 1485 1484 1483 1482 1480 1479 1478 1478 1477 1476 1476 1475 1474 1473 1472
1478 1479 1479 1480 1480 1481 1482 1483 1483 1484 1485 1486 1486 1487 1487 1487 1487 1487 1487 1487 1487 1487 1485 1483 1484 1483 1482 1481 1480 1479 1478 1477 1476 1475 1474 1473 1472 1471 1471 1470 1469 1468 1467
1476 1476 1477 1477 1477 1478 1478 1479 1480 1481 1481 1482 1482 1483 1483 1483 1483 1483 1483 1482 1482 1482 1481 1479 1479 1479 1478 1477 1476 1475 1474 1473 1472 1471 1469 1468 1467 1466 1466 1465 1464 1463 1462
1473 1473 1473 1474 1474 1474 1475 1475 1476 1477 1477 1477 1478 1478 1479 1479 1478 1479 1478 1478 1478 1477 1477 1476 1474 1474 1473 1473 1471 1471 1470 1468 1467 1466 1465 1464 1463 1462 1461 1460 1459 1458 1457
1469 1470 1470 1470 1470 1470 1471 1472 1472 1472 1473 1473 1473 1474 1474 1474 1474 1474 1474 1473 1473 1472 1472 1471 1470 1469 1468 1468 1467 1466 1464 1464 1463 1462 1460 1459 1458 1457 1456 1455 1455 1453 1452
1465 1465 1465 1466 1466 1466 1467 1467 1468 1468 1468 1468 1468 1469 1469 1469 1469 1469 1469 1468 1468 1467 1467 1466 1465 1464 1463 1463 1462 1461 1460 1459 1457 1457 1456 1455 1453 1452 1451 1450 1449 1448 1447
1461 1461 1461 1461 1462 1462 1463 1463 1464 1464 1463 1463 1463 1463 1463 1464 1464 1464 1463 1463 1463 1462 1461 1461 1460 1459 1458 1458 1458 1457 1455 1454 1452 1452 1451 1450 1449 1447 1447 1445 1444 1443 1442
1457 1457 1457 1457 1458 1458 1459 1459 1460 1459 1459 1458 1458 1458 1458 1458 1458 1458 1458 1457 1457 1457 1457 1456 1455 1454 1454 1453 1453 1452 1451 1450 1448 1447 1446 1444 1444 1442 1442 1440 1439 1439 1437
1453 1453 1453 1453 1454 1454 1455 1455 1455 1455 1454 1454 1453 1453 1453 1453 1453 1452 1452 1451 1450 1450 1451 1450 1450 1449 1449 1448 1448 1447 1446 1445 1444 1443 1442 1439 1438 1437 1437 1435 1434 1434 1433
1449 1450 1449 1449 1449 1449 1450 1450 1450 1449 1449 1448 1448 1448 1448 1447 1447 1447 1446 1445 1444 1444 1444 1444 1444 1443 1443 1443 1442 1442 1440 1439 1437 1437 1436 1435 1433 1432 1431 1430 1429 1429 1428
1445 1445 1445 1445 1444 1444 1445 1445 1445 1444 1443 1442 1442 1442 1442 1441 1441 1440 1440 1439 1438 1438 1438 1437 1437 1437 1437 1437 1436 1436 1435 1434 1432 1432 1431 1431 1429 1428 1426 1425 1425 1424 1423